Year,Month,Day,Hour,Minute,Value (Times are PST for windspeed in km/hr)
2007,05,10,00,00,2.30
2007,05,10,00,01,3.10
2007,05,10,00,02,2.60
2007,05,10,00,03,4.40
2007,05,10,00,04,0.90
2007,05,10,00,05,0.40
2007,05,10,00,06,1.60
2007,05,10,00,07,0.80
2007,05,10,00,08,2.60
2007,05,10,00,09,2.00
2007,05,10,00,10,1.20
2007,05,10,00,11,2.00
2007,05,10,00,12,3.70
2007,05,10,00,13,2.90
2007,05,10,00,14,1.20
2007,05,10,00,15,3.10
2007,05,10,00,16,2.20
2007,05,10,00,17,1.10
2007,05,10,00,18,0.00
2007,05,10,00,19,4.30
2007,05,10,00,20,5.40
2007,05,10,00,21,5.70
2007,05,10,00,22,5.80
2007,05,10,00,23,5.70
2007,05,10,00,24,2.00
2007,05,10,00,25,3.60
2007,05,10,00,26,2.30
2007,05,10,00,27,3.90
2007,05,10,00,28,6.10
2007,05,10,00,29,3.30
2007,05,10,00,30,1.90
2007,05,10,00,31,3.00
2007,05,10,00,32,2.40
2007,05,10,00,33,1.50
2007,05,10,00,34,2.40
2007,05,10,00,35,1.20
2007,05,10,00,36,0.80
2007,05,10,00,37,1.90
2007,05,10,00,38,6.20
2007,05,10,00,39,8.00
2007,05,10,00,40,0.70
2007,05,10,00,41,2.90
2007,05,10,00,42,1.30
2007,05,10,00,43,1.40
2007,05,10,00,44,1.40
2007,05,10,00,45,0.30
2007,05,10,00,46,1.10
2007,05,10,00,47,1.90
2007,05,10,00,48,0.80
2007,05,10,00,49,0.90
2007,05,10,00,50,4.30
2007,05,10,00,51,3.00
2007,05,10,00,52,1.10
2007,05,10,00,53,2.80
2007,05,10,00,54,2.10
2007,05,10,00,55,3.00
2007,05,10,00,56,2.40
2007,05,10,00,57,2.00
2007,05,10,00,58,2.20
2007,05,10,00,59,2.50
2007,05,10,01,00,3.90
2007,05,10,01,01,3.60
2007,05,10,01,02,1.30
2007,05,10,01,03,0.10
2007,05,10,01,04,1.30
2007,05,10,01,05,1.50
2007,05,10,01,06,0.20
2007,05,10,01,07,1.40
2007,05,10,01,08,2.70
2007,05,10,01,09,0.50
2007,05,10,01,10,2.90
2007,05,10,01,11,2.50
2007,05,10,01,12,1.00
2007,05,10,01,13,1.30
2007,05,10,01,14,0.70
2007,05,10,01,15,1.60
2007,05,10,01,16,2.20
2007,05,10,01,17,0.00
2007,05,10,01,18,0.00
2007,05,10,01,19,5.30
2007,05,10,01,20,4.00
2007,05,10,01,21,2.50
2007,05,10,01,22,0.60
2007,05,10,01,23,2.50
2007,05,10,01,24,2.70
2007,05,10,01,25,1.20
2007,05,10,01,26,3.00
2007,05,10,01,27,1.90
2007,05,10,01,28,2.30
2007,05,10,01,29,1.10
2007,05,10,01,30,2.70
2007,05,10,01,31,0.60
2007,05,10,01,32,3.00
2007,05,10,01,33,2.60
2007,05,10,01,34,6.00
2007,05,10,01,35,7.00
2007,05,10,01,36,9.00
2007,05,10,01,37,8.60
2007,05,10,01,38,4.70
2007,05,10,01,39,2.70
2007,05,10,01,40,2.20
2007,05,10,01,41,1.40
2007,05,10,01,42,1.90
2007,05,10,01,43,6.10
2007,05,10,01,44,3.70
2007,05,10,01,45,2.40
2007,05,10,01,46,2.90
2007,05,10,01,47,3.50
2007,05,10,01,48,5.30
2007,05,10,01,49,1.90
2007,05,10,01,50,5.80
2007,05,10,01,51,5.40
2007,05,10,01,52,6.50
2007,05,10,01,53,6.60
2007,05,10,01,54,8.20
2007,05,10,01,55,3.90
2007,05,10,01,56,2.40
2007,05,10,01,57,4.00
2007,05,10,01,58,2.30
2007,05,10,01,59,2.50
2007,05,10,02,00,1.90
2007,05,10,02,01,0.60
2007,05,10,02,02,0.00
2007,05,10,02,03,0.00
2007,05,10,02,04,0.10
2007,05,10,02,05,3.80
2007,05,10,02,06,2.10
2007,05,10,02,07,3.00
2007,05,10,02,08,3.40
2007,05,10,02,09,6.10
2007,05,10,02,10,6.40
2007,05,10,02,11,4.90
2007,05,10,02,12,2.60
2007,05,10,02,13,0.60
2007,05,10,02,14,4.10
2007,05,10,02,15,2.10
2007,05,10,02,16,4.30
2007,05,10,02,17,4.40
2007,05,10,02,18,5.50
2007,05,10,02,19,3.80
2007,05,10,02,20,2.50
2007,05,10,02,21,1.40
2007,05,10,02,22,1.90
2007,05,10,02,23,5.10
2007,05,10,02,24,6.40
2007,05,10,02,25,2.80
2007,05,10,02,26,5.00
2007,05,10,02,27,6.60
2007,05,10,02,28,6.20
2007,05,10,02,29,3.70
2007,05,10,02,30,2.60
2007,05,10,02,31,2.70
2007,05,10,02,32,2.70
2007,05,10,02,33,1.40
2007,05,10,02,34,3.30
2007,05,10,02,35,1.40
2007,05,10,02,36,4.00
2007,05,10,02,37,3.60
2007,05,10,02,38,3.40
2007,05,10,02,39,1.90
2007,05,10,02,40,2.20
2007,05,10,02,41,5.60
2007,05,10,02,42,5.10
2007,05,10,02,43,6.30
2007,05,10,02,44,4.00
2007,05,10,02,45,5.10
2007,05,10,02,46,3.90
2007,05,10,02,47,4.10
2007,05,10,02,48,3.60
2007,05,10,02,49,3.60
2007,05,10,02,50,1.10
2007,05,10,02,51,1.30
2007,05,10,02,52,2.10
2007,05,10,02,53,3.40
2007,05,10,02,54,1.80
2007,05,10,02,55,1.10
2007,05,10,02,56,2.50
2007,05,10,02,57,3.20
2007,05,10,02,58,3.30
2007,05,10,02,59,4.70
2007,05,10,03,00,5.40
2007,05,10,03,01,5.20
2007,05,10,03,02,3.30
2007,05,10,03,03,5.60
2007,05,10,03,04,3.30
2007,05,10,03,05,6.40
2007,05,10,03,06,2.10
2007,05,10,03,07,2.10
2007,05,10,03,08,3.60
2007,05,10,03,09,2.40
2007,05,10,03,10,4.20
2007,05,10,03,11,2.30
2007,05,10,03,12,1.40
2007,05,10,03,13,0.80
2007,05,10,03,14,0.10
2007,05,10,03,15,3.80
2007,05,10,03,16,2.40
2007,05,10,03,17,2.60
2007,05,10,03,18,3.10
2007,05,10,03,19,2.90
2007,05,10,03,20,2.10
2007,05,10,03,21,1.50
2007,05,10,03,22,4.90
2007,05,10,03,23,3.60
2007,05,10,03,24,3.00
2007,05,10,03,25,3.90
2007,05,10,03,26,4.30
2007,05,10,03,27,4.80
2007,05,10,03,28,5.90
2007,05,10,03,29,4.30
2007,05,10,03,30,4.70
2007,05,10,03,31,3.90
2007,05,10,03,32,4.70
2007,05,10,03,33,1.70
2007,05,10,03,34,6.10
2007,05,10,03,35,6.10
2007,05,10,03,36,6.40
2007,05,10,03,37,2.80
2007,05,10,03,38,4.80
2007,05,10,03,39,2.80
2007,05,10,03,40,0.40
2007,05,10,03,41,1.70
2007,05,10,03,42,1.40
2007,05,10,03,43,3.50
2007,05,10,03,44,5.80
2007,05,10,03,45,4.70
2007,05,10,03,46,2.50
2007,05,10,03,47,2.20
2007,05,10,03,48,0.20
2007,05,10,03,49,0.80
2007,05,10,03,50,1.10
2007,05,10,03,51,0.60
2007,05,10,03,52,2.30
2007,05,10,03,53,1.40
2007,05,10,03,54,1.40
2007,05,10,03,55,3.20
2007,05,10,03,56,1.30
2007,05,10,03,57,2.50
2007,05,10,03,58,3.40
2007,05,10,03,59,1.40
2007,05,10,04,00,0.80
2007,05,10,04,01,1.20
2007,05,10,04,02,1.00
2007,05,10,04,03,2.40
2007,05,10,04,04,3.40
2007,05,10,04,05,3.60
2007,05,10,04,06,0.30
2007,05,10,04,07,3.90
2007,05,10,04,08,1.80
2007,05,10,04,09,1.30
2007,05,10,04,10,2.10
2007,05,10,04,11,3.20
2007,05,10,04,12,4.90
2007,05,10,04,13,4.10
2007,05,10,04,14,3.50
2007,05,10,04,15,2.70
2007,05,10,04,16,1.10
2007,05,10,04,17,0.80
2007,05,10,04,18,3.10
2007,05,10,04,19,2.10
2007,05,10,04,20,4.80
2007,05,10,04,21,3.90
2007,05,10,04,22,1.60
2007,05,10,04,23,4.00
2007,05,10,04,24,2.60
2007,05,10,04,25,1.90
2007,05,10,04,26,0.90
2007,05,10,04,27,2.20
2007,05,10,04,28,1.80
2007,05,10,04,29,2.80
2007,05,10,04,30,3.10
2007,05,10,04,31,2.80
2007,05,10,04,32,1.60
2007,05,10,04,33,2.90
2007,05,10,04,34,2.70
2007,05,10,04,35,4.10
2007,05,10,04,36,5.30
2007,05,10,04,37,5.10
2007,05,10,04,38,1.30
2007,05,10,04,39,5.00
2007,05,10,04,40,3.70
2007,05,10,04,41,3.20
2007,05,10,04,42,4.20
2007,05,10,04,43,1.60
2007,05,10,04,44,2.50
2007,05,10,04,45,6.10
2007,05,10,04,46,2.50
2007,05,10,04,47,4.40
2007,05,10,04,48,7.20
2007,05,10,04,49,6.60
2007,05,10,04,50,3.00
2007,05,10,04,51,1.90
2007,05,10,04,52,2.80
2007,05,10,04,53,3.80
2007,05,10,04,54,4.30
2007,05,10,04,55,5.00
2007,05,10,04,56,0.80
2007,05,10,04,57,1.30
2007,05,10,04,58,3.00
2007,05,10,04,59,3.00
2007,05,10,05,00,5.90
2007,05,10,05,01,4.70
2007,05,10,05,02,3.40
2007,05,10,05,03,4.50
2007,05,10,05,04,5.60
2007,05,10,05,05,4.40
2007,05,10,05,06,2.50
2007,05,10,05,07,2.40
2007,05,10,05,08,2.60
2007,05,10,05,09,4.10
2007,05,10,05,10,5.40
2007,05,10,05,11,4.10
2007,05,10,05,12,8.60
2007,05,10,05,13,5.20
2007,05,10,05,14,7.30
2007,05,10,05,15,2.80
2007,05,10,05,16,5.50
2007,05,10,05,17,1.50
2007,05,10,05,18,2.10
2007,05,10,05,19,3.60
2007,05,10,05,20,3.30
2007,05,10,05,21,0.40
2007,05,10,05,22,2.70
2007,05,10,05,23,4.40
2007,05,10,05,24,6.10
2007,05,10,05,25,5.80
2007,05,10,05,26,3.10
2007,05,10,05,27,4.60
2007,05,10,05,28,4.40
2007,05,10,05,29,2.40
2007,05,10,05,30,2.50
2007,05,10,05,31,1.70
2007,05,10,05,32,2.80
2007,05,10,05,33,2.60
2007,05,10,05,34,2.30
2007,05,10,05,35,3.60
2007,05,10,05,36,6.20
2007,05,10,05,37,2.70
2007,05,10,05,38,3.80
2007,05,10,05,39,3.50
2007,05,10,05,40,3.70
2007,05,10,05,41,2.90
2007,05,10,05,42,2.30
2007,05,10,05,43,4.80
2007,05,10,05,44,3.10
2007,05,10,05,45,4.30
2007,05,10,05,46,6.00
2007,05,10,05,47,3.20
2007,05,10,05,48,4.20
2007,05,10,05,49,8.10
2007,05,10,05,50,6.40
2007,05,10,05,51,6.50
2007,05,10,05,52,4.70
2007,05,10,05,53,5.40
2007,05,10,05,54,5.40
2007,05,10,05,55,5.30
2007,05,10,05,56,2.30
2007,05,10,05,57,3.70
2007,05,10,05,58,3.70
2007,05,10,05,59,1.40
2007,05,10,06,00,6.00
2007,05,10,06,01,3.60
2007,05,10,06,02,2.80
2007,05,10,06,03,3.40
2007,05,10,06,04,4.30
2007,05,10,06,05,2.70
2007,05,10,06,06,1.40
2007,05,10,06,07,11.40
2007,05,10,06,08,6.60
2007,05,10,06,09,6.90
2007,05,10,06,10,1.20
2007,05,10,06,11,3.40
2007,05,10,06,12,2.30
2007,05,10,06,13,6.20
2007,05,10,06,14,4.10
2007,05,10,06,15,6.10
2007,05,10,06,16,6.90
2007,05,10,06,17,4.30
2007,05,10,06,18,1.20
2007,05,10,06,19,2.30
2007,05,10,06,20,3.60
2007,05,10,06,21,3.50
2007,05,10,06,22,5.60
2007,05,10,06,23,4.10
2007,05,10,06,24,2.10
2007,05,10,06,25,1.50
2007,05,10,06,26,9.30
2007,05,10,06,27,5.50
2007,05,10,06,28,3.60
2007,05,10,06,29,6.60
2007,05,10,06,30,3.10
2007,05,10,06,31,3.10
2007,05,10,06,32,2.10
2007,05,10,06,33,1.50
2007,05,10,06,34,4.40
2007,05,10,06,35,3.60
2007,05,10,06,36,7.10
2007,05,10,06,37,6.30
2007,05,10,06,38,7.50
2007,05,10,06,39,5.00
2007,05,10,06,40,5.80
2007,05,10,06,41,8.60
2007,05,10,06,42,7.10
2007,05,10,06,43,3.00
2007,05,10,06,44,5.00
2007,05,10,06,45,8.00
2007,05,10,06,46,4.30
2007,05,10,06,47,6.90
2007,05,10,06,48,5.60
2007,05,10,06,49,2.50
2007,05,10,06,50,0.90
2007,05,10,06,51,0.00
2007,05,10,06,52,5.60
2007,05,10,06,53,6.10
2007,05,10,06,54,4.90
2007,05,10,06,55,7.40
2007,05,10,06,56,4.90
2007,05,10,06,57,8.50
2007,05,10,06,58,5.30
2007,05,10,06,59,4.00
2007,05,10,07,00,6.00
2007,05,10,07,01,5.30
2007,05,10,07,02,5.50
2007,05,10,07,03,4.40
2007,05,10,07,04,2.20
2007,05,10,07,05,2.90
2007,05,10,07,06,4.50
2007,05,10,07,07,6.40
2007,05,10,07,08,6.60
2007,05,10,07,09,4.20
2007,05,10,07,10,7.50
2007,05,10,07,11,3.20
2007,05,10,07,12,8.50
2007,05,10,07,13,5.70
2007,05,10,07,14,5.30
2007,05,10,07,15,5.50
2007,05,10,07,16,9.10
2007,05,10,07,17,4.20
2007,05,10,07,18,3.00
2007,05,10,07,19,9.70
2007,05,10,07,20,7.50
2007,05,10,07,21,3.50
2007,05,10,07,22,6.00
2007,05,10,07,23,5.60
2007,05,10,07,24,5.10
2007,05,10,07,25,1.40
2007,05,10,07,26,10.40
2007,05,10,07,27,6.50
2007,05,10,07,28,4.10
2007,05,10,07,29,6.00
2007,05,10,07,30,4.70
2007,05,10,07,31,6.70
2007,05,10,07,32,3.40
2007,05,10,07,33,4.40
2007,05,10,07,34,10.00
2007,05,10,07,35,5.60
2007,05,10,07,36,1.50
2007,05,10,07,37,7.50
2007,05,10,07,38,7.20
2007,05,10,07,39,10.60
2007,05,10,07,40,6.80
2007,05,10,07,41,4.30
2007,05,10,07,42,6.60
2007,05,10,07,43,8.30
2007,05,10,07,44,5.00
2007,05,10,07,45,4.10
2007,05,10,07,46,4.30
2007,05,10,07,47,5.80
2007,05,10,07,48,7.20
2007,05,10,07,49,8.10
2007,05,10,07,50,8.70
2007,05,10,07,51,3.50
2007,05,10,07,52,6.30
2007,05,10,07,53,4.80
2007,05,10,07,54,7.20
2007,05,10,07,55,7.20
2007,05,10,07,56,5.00
2007,05,10,07,57,5.30
2007,05,10,07,58,7.40
2007,05,10,07,59,10.50
2007,05,10,08,00,11.20
2007,05,10,08,01,6.30
2007,05,10,08,02,10.30
2007,05,10,08,03,9.70
2007,05,10,08,04,2.80
2007,05,10,08,05,2.50
2007,05,10,08,06,3.70
2007,05,10,08,07,5.00
2007,05,10,08,08,5.40
2007,05,10,08,09,2.90
2007,05,10,08,10,3.70
2007,05,10,08,11,8.90
2007,05,10,08,12,14.10
2007,05,10,08,13,6.60
2007,05,10,08,14,6.00
2007,05,10,08,15,9.00
2007,05,10,08,16,14.20
2007,05,10,08,17,4.90
2007,05,10,08,18,10.40
2007,05,10,08,19,3.00
2007,05,10,08,20,8.90
2007,05,10,08,21,6.30
2007,05,10,08,22,5.10
2007,05,10,08,23,4.60
2007,05,10,08,24,6.40
2007,05,10,08,25,6.40
2007,05,10,08,26,3.10
2007,05,10,08,27,8.40
2007,05,10,08,28,9.60
2007,05,10,08,29,5.40
2007,05,10,08,30,6.50
2007,05,10,08,31,11.30
2007,05,10,08,32,10.00
2007,05,10,08,33,7.10
2007,05,10,08,34,12.40
2007,05,10,08,35,15.10
2007,05,10,08,36,8.30
2007,05,10,08,37,6.40
2007,05,10,08,38,4.90
2007,05,10,08,39,9.90
2007,05,10,08,40,10.00
2007,05,10,08,41,4.70
2007,05,10,08,42,5.10
2007,05,10,08,43,4.70
2007,05,10,08,44,10.30
2007,05,10,08,45,13.40
2007,05,10,08,46,5.60
2007,05,10,08,47,7.30
2007,05,10,08,48,7.90
2007,05,10,08,49,10.80
2007,05,10,08,50,5.60
2007,05,10,08,51,6.40
2007,05,10,08,52,9.80
2007,05,10,08,53,7.50
2007,05,10,08,54,1.80
2007,05,10,08,55,7.60
2007,05,10,08,56,7.20
2007,05,10,08,57,9.10
2007,05,10,08,58,5.80
2007,05,10,08,59,6.40
2007,05,10,09,00,12.60
2007,05,10,09,01,12.20
2007,05,10,09,02,7.20
2007,05,10,09,03,6.40
2007,05,10,09,04,9.10
2007,05,10,09,05,3.70
2007,05,10,09,06,6.70
2007,05,10,09,07,10.60
2007,05,10,09,08,11.00
2007,05,10,09,09,13.10
2007,05,10,09,10,12.00
2007,05,10,09,11,6.70
2007,05,10,09,12,7.40
2007,05,10,09,13,9.80
2007,05,10,09,14,9.00
2007,05,10,09,15,7.30
2007,05,10,09,16,7.90
2007,05,10,09,17,8.70
2007,05,10,09,18,8.60
2007,05,10,09,19,6.40
2007,05,10,09,20,9.30
2007,05,10,09,21,10.70
2007,05,10,09,22,9.50
2007,05,10,09,23,8.90
2007,05,10,09,24,8.10
2007,05,10,09,25,3.10
2007,05,10,09,26,7.80
2007,05,10,09,27,8.10
2007,05,10,09,28,5.40
2007,05,10,09,29,7.30
2007,05,10,09,30,7.50
2007,05,10,09,31,11.90
2007,05,10,09,32,8.80
2007,05,10,09,33,10.10
2007,05,10,09,34,10.90
2007,05,10,09,35,7.80
2007,05,10,09,36,8.50
2007,05,10,09,37,7.40
2007,05,10,09,38,4.70
2007,05,10,09,39,8.00
2007,05,10,09,40,12.00
2007,05,10,09,41,6.80
2007,05,10,09,42,10.70
2007,05,10,09,43,8.60
2007,05,10,09,44,9.50
2007,05,10,09,45,6.40
2007,05,10,09,46,6.90
2007,05,10,09,47,8.40
2007,05,10,09,48,8.40
2007,05,10,09,49,10.60
2007,05,10,09,50,6.10
2007,05,10,09,51,6.10
2007,05,10,09,52,5.60
2007,05,10,09,53,9.60
2007,05,10,09,54,14.10
2007,05,10,09,55,10.80
2007,05,10,09,56,4.70
2007,05,10,09,57,9.70
2007,05,10,09,58,8.50
2007,05,10,09,59,10.20
2007,05,10,10,00,6.30
2007,05,10,10,01,3.50
2007,05,10,10,02,5.50
2007,05,10,10,03,7.20
2007,05,10,10,04,9.20
2007,05,10,10,05,7.20
2007,05,10,10,06,9.00
2007,05,10,10,07,9.30
2007,05,10,10,08,6.50
2007,05,10,10,09,11.00
2007,05,10,10,10,11.10
2007,05,10,10,11,11.30
2007,05,10,10,12,10.80
2007,05,10,10,13,11.50
2007,05,10,10,14,11.60
2007,05,10,10,15,9.90
2007,05,10,10,16,5.60
2007,05,10,10,17,8.10
2007,05,10,10,18,10.80
2007,05,10,10,19,12.60
2007,05,10,10,20,10.80
2007,05,10,10,21,4.60
2007,05,10,10,22,6.00
2007,05,10,10,23,11.90
2007,05,10,10,24,11.10
2007,05,10,10,25,13.30
2007,05,10,10,26,8.60
2007,05,10,10,27,9.90
2007,05,10,10,28,9.90
2007,05,10,10,29,11.90
2007,05,10,10,30,8.10
2007,05,10,10,31,5.60
2007,05,10,10,32,6.60
2007,05,10,10,33,8.10
2007,05,10,10,34,11.00
2007,05,10,10,35,7.50
2007,05,10,10,36,12.80
2007,05,10,10,37,8.90
2007,05,10,10,38,10.20
2007,05,10,10,39,10.70
2007,05,10,10,40,7.00
2007,05,10,10,41,6.50
2007,05,10,10,42,14.40
2007,05,10,10,43,9.80
2007,05,10,10,44,4.80
2007,05,10,10,45,6.80
2007,05,10,10,46,3.90
2007,05,10,10,47,7.60
2007,05,10,10,48,3.80
2007,05,10,10,49,4.80
2007,05,10,10,50,6.20
2007,05,10,10,51,4.10
2007,05,10,10,52,7.50
2007,05,10,10,53,9.10
2007,05,10,10,54,5.50
2007,05,10,10,55,5.30
2007,05,10,10,56,6.20
2007,05,10,10,57,3.60
2007,05,10,10,58,3.70
2007,05,10,10,59,10.20
2007,05,10,11,00,8.50
2007,05,10,11,01,6.70
2007,05,10,11,02,8.70
2007,05,10,11,03,6.30
2007,05,10,11,04,10.20
2007,05,10,11,05,8.00
2007,05,10,11,06,10.50
2007,05,10,11,07,6.60
2007,05,10,11,08,8.40
2007,05,10,11,09,12.30
2007,05,10,11,10,12.30
2007,05,10,11,11,13.00
2007,05,10,11,12,7.80
2007,05,10,11,13,5.00
2007,05,10,11,14,10.90
2007,05,10,11,15,7.30
2007,05,10,11,16,6.10
2007,05,10,11,17,5.10
2007,05,10,11,18,7.00
2007,05,10,11,19,11.80
2007,05,10,11,20,11.20
2007,05,10,11,21,5.60
2007,05,10,11,22,8.20
2007,05,10,11,23,8.60
2007,05,10,11,24,6.20
2007,05,10,11,25,6.00
2007,05,10,11,26,5.30
2007,05,10,11,27,6.40
2007,05,10,11,28,9.30
2007,05,10,11,29,7.80
2007,05,10,11,30,7.60
2007,05,10,11,31,8.00
2007,05,10,11,32,12.80
2007,05,10,11,33,15.60
2007,05,10,11,34,11.70
2007,05,10,11,35,12.30
2007,05,10,11,36,4.40
2007,05,10,11,37,8.40
2007,05,10,11,38,9.40
2007,05,10,11,39,11.40
2007,05,10,11,40,10.30
2007,05,10,11,41,10.20
2007,05,10,11,42,12.40
2007,05,10,11,43,12.80
2007,05,10,11,44,14.10
2007,05,10,11,45,12.00
2007,05,10,11,46,7.30
2007,05,10,11,47,2.40
2007,05,10,11,48,4.20
2007,05,10,11,49,5.30
2007,05,10,11,50,7.10
2007,05,10,11,51,8.20
2007,05,10,11,52,8.60
2007,05,10,11,53,11.50
2007,05,10,11,54,7.00
2007,05,10,11,55,10.10
2007,05,10,11,56,9.60
2007,05,10,11,57,13.10
2007,05,10,11,58,11.40
2007,05,10,11,59,8.00
2007,05,10,12,00,8.20
2007,05,10,12,01,10.80
2007,05,10,12,02,4.20
2007,05,10,12,03,8.30
2007,05,10,12,04,8.80
2007,05,10,12,05,7.30
2007,05,10,12,06,11.80
2007,05,10,12,07,11.70
2007,05,10,12,08,9.70
2007,05,10,12,09,7.40
2007,05,10,12,10,4.20
2007,05,10,12,11,3.20
2007,05,10,12,12,6.60
2007,05,10,12,13,8.00
2007,05,10,12,14,11.10
2007,05,10,12,15,8.40
2007,05,10,12,16,2.60
2007,05,10,12,17,8.90
2007,05,10,12,18,5.60
2007,05,10,12,19,7.00
2007,05,10,12,20,8.30
2007,05,10,12,21,7.60
2007,05,10,12,22,10.50
2007,05,10,12,23,5.90
2007,05,10,12,24,6.10
2007,05,10,12,25,5.30
2007,05,10,12,26,6.10
2007,05,10,12,27,5.10
2007,05,10,12,28,4.90
2007,05,10,12,29,13.40
2007,05,10,12,30,8.80
2007,05,10,12,31,11.90
2007,05,10,12,32,9.70
2007,05,10,12,33,6.90
2007,05,10,12,34,3.90
2007,05,10,12,35,8.10
2007,05,10,12,36,11.90
2007,05,10,12,37,11.30
2007,05,10,12,38,6.30
2007,05,10,12,39,7.10
2007,05,10,12,40,6.90
2007,05,10,12,41,6.00
2007,05,10,12,42,9.40
2007,05,10,12,43,5.00
2007,05,10,12,44,7.90
2007,05,10,12,45,4.70
2007,05,10,12,46,6.70
2007,05,10,12,47,8.30
2007,05,10,12,48,7.60
2007,05,10,12,49,7.10
2007,05,10,12,50,9.80
2007,05,10,12,51,3.60
2007,05,10,12,52,8.10
2007,05,10,12,53,7.70
2007,05,10,12,54,3.70
2007,05,10,12,55,7.20
2007,05,10,12,56,7.80
2007,05,10,12,57,5.60
2007,05,10,12,58,7.10
2007,05,10,12,59,9.10
2007,05,10,13,00,9.40
2007,05,10,13,01,9.30
2007,05,10,13,02,7.60
2007,05,10,13,03,7.50
2007,05,10,13,04,7.40
2007,05,10,13,05,9.40
2007,05,10,13,06,8.20
2007,05,10,13,07,6.00
2007,05,10,13,08,13.60
2007,05,10,13,09,6.70
2007,05,10,13,10,11.80
2007,05,10,13,11,6.70
2007,05,10,13,12,5.60
2007,05,10,13,13,9.60
2007,05,10,13,14,8.40
2007,05,10,13,15,10.40
2007,05,10,13,16,10.30
2007,05,10,13,17,8.30
2007,05,10,13,18,6.10
2007,05,10,13,19,5.90
2007,05,10,13,20,3.70
2007,05,10,13,21,8.80
2007,05,10,13,22,7.00
2007,05,10,13,23,12.90
2007,05,10,13,24,12.10
2007,05,10,13,25,13.00
2007,05,10,13,26,13.20
2007,05,10,13,27,13.00
2007,05,10,13,28,12.70
2007,05,10,13,29,7.70
2007,05,10,13,30,8.00
2007,05,10,13,31,13.00
2007,05,10,13,32,10.90
2007,05,10,13,33,11.40
2007,05,10,13,34,12.40
2007,05,10,13,35,7.50
2007,05,10,13,36,7.30
2007,05,10,13,37,6.10
2007,05,10,13,38,8.00
2007,05,10,13,39,8.10
2007,05,10,13,40,12.70
2007,05,10,13,41,9.20
2007,05,10,13,42,11.70
2007,05,10,13,43,8.00
2007,05,10,13,44,8.70
2007,05,10,13,45,4.10
2007,05,10,13,46,6.90
2007,05,10,13,47,11.90
2007,05,10,13,48,8.00
2007,05,10,13,49,9.10
2007,05,10,13,50,5.80
2007,05,10,13,51,6.90
2007,05,10,13,52,6.30
2007,05,10,13,53,5.30
2007,05,10,13,54,9.30
2007,05,10,13,55,8.90
2007,05,10,13,56,6.40
2007,05,10,13,57,2.80
2007,05,10,13,58,8.00
2007,05,10,13,59,6.40
2007,05,10,14,00,5.40
2007,05,10,14,01,7.20
2007,05,10,14,02,6.40
2007,05,10,14,03,7.30
2007,05,10,14,04,4.00
2007,05,10,14,05,6.70
2007,05,10,14,06,7.70
2007,05,10,14,07,7.50
2007,05,10,14,08,8.90
2007,05,10,14,09,9.00
2007,05,10,14,10,5.50
2007,05,10,14,11,5.10
2007,05,10,14,12,7.10
2007,05,10,14,13,8.50
2007,05,10,14,14,6.90
2007,05,10,14,15,6.20
2007,05,10,14,16,5.60
2007,05,10,14,17,3.60
2007,05,10,14,18,3.40
2007,05,10,14,19,6.40
2007,05,10,14,20,5.10
2007,05,10,14,21,9.80
2007,05,10,14,22,8.60
2007,05,10,14,23,5.00
2007,05,10,14,24,5.70
2007,05,10,14,25,5.70
2007,05,10,14,26,2.50
2007,05,10,14,27,6.70
2007,05,10,14,28,7.20
2007,05,10,14,29,5.00
2007,05,10,14,30,5.20
2007,05,10,14,31,6.80
2007,05,10,14,32,8.10
2007,05,10,14,33,5.90
2007,05,10,14,34,3.90
2007,05,10,14,35,10.80
2007,05,10,14,36,6.40
2007,05,10,14,37,7.40
2007,05,10,14,38,4.80
2007,05,10,14,39,6.40
2007,05,10,14,40,5.10
2007,05,10,14,41,5.50
2007,05,10,14,42,4.40
2007,05,10,14,43,6.80
2007,05,10,14,44,7.60
2007,05,10,14,45,3.60
2007,05,10,14,46,3.20
2007,05,10,14,47,4.70
2007,05,10,14,48,6.90
2007,05,10,14,49,7.20
2007,05,10,14,50,6.40
2007,05,10,14,51,4.90
2007,05,10,14,52,7.10
2007,05,10,14,53,6.10
2007,05,10,14,54,4.20
2007,05,10,14,55,5.40
2007,05,10,14,56,4.80
2007,05,10,14,57,6.40
2007,05,10,14,58,3.60
2007,05,10,14,59,6.20
2007,05,10,15,00,5.70
2007,05,10,15,01,6.40
2007,05,10,15,02,2.10
2007,05,10,15,03,4.30
2007,05,10,15,04,6.30
2007,05,10,15,05,2.10
2007,05,10,15,06,6.50
2007,05,10,15,07,4.60
2007,05,10,15,08,3.60
2007,05,10,15,09,3.70
2007,05,10,15,10,0.70
2007,05,10,15,11,6.10
2007,05,10,15,12,7.90
2007,05,10,15,13,6.20
2007,05,10,15,14,5.20
2007,05,10,15,15,3.00
2007,05,10,15,16,3.60
2007,05,10,15,17,4.40
2007,05,10,15,18,3.10
2007,05,10,15,19,4.30
2007,05,10,15,20,5.00
2007,05,10,15,21,5.70
2007,05,10,15,22,6.60
2007,05,10,15,23,7.20
2007,05,10,15,24,5.20
2007,05,10,15,25,6.30
2007,05,10,15,26,7.10
2007,05,10,15,27,4.10
2007,05,10,15,28,3.00
2007,05,10,15,29,6.00
2007,05,10,15,30,3.40
2007,05,10,15,31,6.10
2007,05,10,15,32,5.50
2007,05,10,15,33,7.50
2007,05,10,15,34,6.90
2007,05,10,15,35,7.30
2007,05,10,15,36,2.30
2007,05,10,15,37,2.70
2007,05,10,15,38,8.30
2007,05,10,15,39,6.60
2007,05,10,15,40,8.10
2007,05,10,15,41,4.50
2007,05,10,15,42,6.30
2007,05,10,15,43,3.70
2007,05,10,15,44,5.90
2007,05,10,15,45,6.10
2007,05,10,15,46,6.10
2007,05,10,15,47,1.40
2007,05,10,15,48,3.30
2007,05,10,15,49,2.30
2007,05,10,15,50,2.10
2007,05,10,15,51,5.80
2007,05,10,15,52,5.60
2007,05,10,15,53,6.20
2007,05,10,15,54,6.40
2007,05,10,15,55,7.80
2007,05,10,15,56,5.70
2007,05,10,15,57,5.00
2007,05,10,15,58,6.70
2007,05,10,15,59,8.00
2007,05,10,16,00,6.50
2007,05,10,16,01,6.60
2007,05,10,16,02,6.10
2007,05,10,16,03,5.00
2007,05,10,16,04,7.20
2007,05,10,16,05,6.30
2007,05,10,16,06,4.90
2007,05,10,16,07,8.50
2007,05,10,16,08,5.10
2007,05,10,16,09,5.30
2007,05,10,16,10,5.60
2007,05,10,16,11,6.90
2007,05,10,16,12,6.20
2007,05,10,16,13,3.10
2007,05,10,16,14,2.40
2007,05,10,16,15,4.70
2007,05,10,16,16,7.70
2007,05,10,16,17,5.90
2007,05,10,16,18,2.70
2007,05,10,16,19,4.10
2007,05,10,16,20,4.70
2007,05,10,16,21,5.30
2007,05,10,16,22,5.60
2007,05,10,16,23,9.20
2007,05,10,16,24,6.70
2007,05,10,16,25,5.40
2007,05,10,16,26,6.00
2007,05,10,16,27,6.60
2007,05,10,16,28,4.80
2007,05,10,16,29,6.40
2007,05,10,16,30,7.10
2007,05,10,16,31,5.00
2007,05,10,16,32,5.70
2007,05,10,16,33,7.00
2007,05,10,16,34,5.10
2007,05,10,16,35,5.20
2007,05,10,16,36,7.60
2007,05,10,16,37,7.30
2007,05,10,16,38,4.80
2007,05,10,16,39,5.80
2007,05,10,16,40,4.60
2007,05,10,16,41,8.60
2007,05,10,16,42,6.60
2007,05,10,16,43,7.50
2007,05,10,16,44,5.10
2007,05,10,16,45,4.80
2007,05,10,16,46,6.10
2007,05,10,16,47,4.40
2007,05,10,16,48,3.80
2007,05,10,16,49,4.20
2007,05,10,16,50,6.20
2007,05,10,16,51,6.60
2007,05,10,16,52,7.30
2007,05,10,16,53,5.70
2007,05,10,16,54,6.50
2007,05,10,16,55,5.20
2007,05,10,16,56,1.90
2007,05,10,16,57,4.00
2007,05,10,16,58,3.70
2007,05,10,16,59,7.50
2007,05,10,17,00,3.70
2007,05,10,17,01,5.00
2007,05,10,17,02,6.90
2007,05,10,17,03,5.10
2007,05,10,17,04,6.90
2007,05,10,17,05,5.80
2007,05,10,17,06,4.80
2007,05,10,17,07,3.30
2007,05,10,17,08,6.30
2007,05,10,17,09,2.40
2007,05,10,17,10,4.50
2007,05,10,17,11,7.10
2007,05,10,17,12,7.10
2007,05,10,17,13,6.70
2007,05,10,17,14,5.30
2007,05,10,17,15,7.40
2007,05,10,17,16,3.50
2007,05,10,17,17,7.00
2007,05,10,17,18,6.30
2007,05,10,17,19,6.60
2007,05,10,17,20,5.10
2007,05,10,17,21,7.10
2007,05,10,17,22,5.80
2007,05,10,17,23,5.50
2007,05,10,17,24,5.20
2007,05,10,17,25,2.80
2007,05,10,17,26,6.80
2007,05,10,17,27,5.20
2007,05,10,17,28,5.30
2007,05,10,17,29,2.40
2007,05,10,17,30,2.90
2007,05,10,17,31,4.60
2007,05,10,17,32,4.10
2007,05,10,17,33,4.40
2007,05,10,17,34,2.90
2007,05,10,17,35,7.00
2007,05,10,17,36,2.70
2007,05,10,17,37,3.40
2007,05,10,17,38,1.90
2007,05,10,17,39,6.20
2007,05,10,17,40,6.30
2007,05,10,17,41,4.50
2007,05,10,17,42,8.60
2007,05,10,17,43,7.00
2007,05,10,17,44,4.70
2007,05,10,17,45,5.80
2007,05,10,17,46,6.30
2007,05,10,17,47,4.80
2007,05,10,17,48,5.60
2007,05,10,17,49,4.10
2007,05,10,17,50,5.10
2007,05,10,17,51,3.90
2007,05,10,17,52,5.50
2007,05,10,17,53,5.20
2007,05,10,17,54,4.20
2007,05,10,17,55,1.80
2007,05,10,17,56,2.30
2007,05,10,17,57,2.00
2007,05,10,17,58,5.00
2007,05,10,17,59,4.10
2007,05,10,18,00,3.20
2007,05,10,18,01,5.00